Location: Ash Swamp
(41.5170°N, 74.6157°W)
Time: 16:57:55
(UTC+00:00)

IRS-1C - Pass Details

Date: 14 July 2020
Orbit: 815 x 817 km, 98.8° (Epoch: 04 August)

Event Time Altitude Azimuth Distance (km) Brightness Sun altitude
Rises 07:56:43 0° 10° (N) 3,352 8.4 -15.4°
Reaches altitude 10° 07:59:06 10° 7° (N) 2,416 7.4 -15.1°
Maximum altitude 08:04:21 61° 288° (WNW) 920 4.3 -14.4°
Enters shadow 08:08:02 20° 213° (SSW) 1,814 5.3 -13.9°
